Location: Byhalia Creek
(34.8270°N, 89.8040°W)
Time: 08:14:43
(UTC+00:00)

Okean-O - Pass Details

Date: 22 April 2026
Orbit: 627 x 629 km, 97.9° (Epoch: 15 May)

Event Time Altitude Azimuth Distance (km) Brightness Sun altitude
Exits shadow 02:54:02 52° 15° (NNE) 784 3.1 -25.9°
Drops below altitude 10° 02:57:27 10° 353° (N) 2,011 5.7 -26.5°
Sets 02:59:40 0° 351° (N) 2,922 6.7 -26.8°
